Regional Weather Roundup
Issued by NWS Cleveland, OH

Home | Current Version | Previous Version | Graphics & Text | Print | Product List | Glossary On
Versions: 1 2 3 4 5 6 7 8 9 10 11 12 13 14 15 16 17 18 19 20 21 22 23 24 25 26 27 28 29 30 31 32 33 34 35 36 37 38 39 40 41 42 43 44 45 46 47 48 49 50
000
ASUS41 KCLE 302210
RWRCLE
OHIO REGIONAL WEATHER ROUNDUP
NATIONAL WEATHER SERVICE WILMINGTON, OH
600 PM EDT SAT APR 30 2016

NOTE: "FAIR" INDICATES FEW OR NO CLOUDS BELOW 12,000 FEET WITH NO
SIGNIFICANT WEATHER AND/OR OBSTRUCTIONS TO VISIBILITY.

OHZ001>008-015>018-024>027-034-035-043-044-302300-
   NORTHWEST OHIO

CITY           SKY/WX    TMP DP  RH WIND       PRES   REMARKS
DEFIANCE       LGT RAIN  49  45  86 E13       29.99S FOG
FINDLAY        RAIN      51  46  83 NE9       29.99R
TOLEDO EXPRESS RAIN      47  45  93 E10       30.03R FOG
TOLEDO EXEC    LGT RAIN  47  44  90 E9        30.04R FOG
LIMA           RAIN      51  50  96 E6        29.98R FOG
$$

OHZ009>014-019>023-028>033-038-089-302300-
   NORTHEAST OHIO

CITY           SKY/WX    TMP DP  RH WIND       PRES   REMARKS
CLE-HOPKINS    LGT RAIN  50  47  89 NE10      30.04F FOG
CLE-LAKEFRONT  LGT RAIN  50  47  89 NE10      30.03F FOG
CUY CO. ARPT   CLOUDY    57  50  77 NE7       30.05F
LORAIN-ELYRIA  LGT RAIN  48  45  89 E8        30.02F FOG
ASHTABULA      CLOUDY    55  45  68 N6        30.06F
AKRON-CANTON   LGT RAIN  56  50  80 CALM      30.04F
WOOSTER        LGT RAIN  53  50  89 SE7       30.04F FOG
MANSFIELD      LGT RAIN  50  49  96 E12       29.99F FOG
YOUNGSTOWN     LGT RAIN  60  48  64 E6        30.04F
$$

OHZ042-051>053-060>062-070>072-077>081-302300-
  SOUTHWEST OHIO

CITY           SKY/WX    TMP DP  RH WIND       PRES   REMARKS
CINC-COVINGTON CLOUDY    60  58  92 SE8       29.93R
CINC-LUNKEN    CLOUDY    60  58  92 S7        29.95R
HAMILTON       LGT RAIN  60  57  89 CALM      29.95R
DAYTON         LGT RAIN  55  54  96 E8        29.95R FOG
WRIGHT-PAT AFB LGT RAIN  56  56 100 SE12G22   29.93F FOG
DAYTON GENERAL CLOUDY    58  54  86 N7        29.95R
WILMINGTON     PTSUNNY   56  54  93 SE13G21   29.93R
$$

OHZ036-037-039>041-045>050-054>059-063>069-073>076-082>088-302300-
  CENTRAL AND SOUTHEAST OHIO

CITY           SKY/WX    TMP DP  RH WIND       PRES   REMARKS
COLUMBUS       LGT RAIN  54  53  97 SE9G16    29.96F
OSU AIRPORT    LGT RAIN  56  54  93 E9        29.96F FOG
BOLTON FIELD   NOT AVBL
RICKENBACK AFB LGT RAIN  55  53  94 SE10G16   29.95F
NEWARK         LGT RAIN  57  53  86 E9        29.98F
MARION         LGT RAIN  52  50  93 SE10      29.98S FOG
LANCASTER      LGT RAIN  56  53  90 SE12      29.97F FOG
ZANESVILLE     LGT RAIN  59  54  83 E6        30.03R
NEW PHILLY     LGT RAIN  57  53  86 CALM      30.05S FOG
$$




USA.gov is the U.S. government's official web portal to all federal, state and local government web resources and services.